Weather History for K8D3 - February, 2012

Change the Weather History Date:

Friday, February 17, 2012

  Actual Average Record
Temperature  
Mean Temperature 27 °F 19 °F  
Max Temperature 37 °F 28 °F 61 °F (1981)
Min Temperature 16 °F 9 °F -28 °F (1936)
Degree Days  
Heating Degree Days 38 46  
Month to date heating degree days 706 829  
Since 1 July heating degree days 4785 5775  
Cooling Degree Days 0 0  
Month to date cooling degree days 0 0  
Year to date cooling degree days 0 0  
Moisture  
Dew Point 18 °F    
Average Humidity 68    
Maximum Humidity 88    
Minimum Humidity 47    
Precipitation  
Precipitation 0.00 in 0.02 in 0.37 in (1998)
Month to date precipitation 0.02 0.22  
Year to date precipitation 0.50 0.65  
Snow  
Snow 0.00 in - - ()
Month to date snowfall T  
Since 1 July snowfall 4.8  
Snow Depth 0.00 in    
Sea Level Pressure  
Sea Level Pressure 30.16 in    
Wind  
Wind Speed 12 mph (NNW)    
Max Wind Speed 21 mph    
Max Gust Speed 26 mph    
T = Trace of Precipitation, MM = Missing Value Source: NWS Daily Summary

Daily Weather History Graph

Daily Weather History Graph

Search for Another Location

Airport or City:

Trip Planner

Search our weather history database for the weather conditions in past years. The results will help you decide how hot, cold, wet, or windy it might be!

Date:

Astronomy

Feb. 17, 2012 Rise Set
Actual Time 7:27 AM CST 5:57 PM CST
Civil Twilight 6:57 AM CST 6:27 PM CST
Nautical Twilight 6:22 AM CST 7:02 PM CST
Astronomical Twilight 5:48 AM CST 7:36 PM CST
Moon 4:29 AM CST (2/17) 1:41 PM CST (2/17)
Length of Visible Light 11h 30m
Length of Day
10h 29m
Waning Crescent, 19% of the Moon is Illuminated
Feb 17
Waning Crescent
Feb 21
New
Feb 29
First Quarter
Mar 8
Full
Mar 14
Last Quarter

Hourly Weather History & Observations

Time (CST) Temp. Windchill Dew Point Humidity Pressure Visibility Wind Dir Wind Speed Gust Speed Precip Events Conditions
12:56 AM 30.0 °F 23.2 °F 25.0 °F 82% 29.99 in - WNW 6.9 mph - N/A   Unknown
1:56 AM 25.0 °F 15.5 °F 21.0 °F 85% 29.99 in - NNW 9.2 mph - N/A   Unknown
2:56 AM 26.1 °F 15.0 °F 19.9 °F 78% 30.00 in - NNW 12.7 mph - N/A   Unknown
3:56 AM 24.1 °F 12.5 °F 19.0 °F 81% 30.02 in - NNW 12.7 mph - N/A   Unknown
4:56 AM 24.1 °F 11.5 °F 18.0 °F 77% 30.04 in - NNW 15.0 mph - N/A   Unknown
5:56 AM 21.9 °F 9.2 °F 17.1 °F 82% 30.07 in - NNW 13.8 mph - N/A   Unknown
6:56 AM 21.9 °F 8.2 °F 17.1 °F 82% 30.11 in - NNW 16.1 mph - N/A   Unknown
7:56 AM 21.0 °F 8.6 °F 17.1 °F 85% 30.13 in - NNW 12.7 mph - N/A   Unknown
8:56 AM 24.1 °F 11.5 °F 19.9 °F 84% 30.15 in - North 15.0 mph - N/A   Unknown
9:56 AM 26.1 °F 14.5 °F 21.9 °F 84% 30.17 in - North 13.8 mph - N/A   Unknown
10:56 AM 30.9 °F 20.7 °F 21.9 °F 69% 30.18 in - North 13.8 mph - N/A   Unknown
11:56 AM 32.0 °F 20.8 °F 19.0 °F 59% 30.20 in - North 17.3 mph - N/A   Unknown
12:56 PM 34.0 °F 24.6 °F 17.1 °F 50% 30.19 in - North 13.8 mph 25.3 mph N/A   Unknown
1:56 PM 36.0 °F 27.1 °F 17.1 °F 46% 30.19 in - North 13.8 mph - N/A   Unknown
2:56 PM 34.0 °F 26.0 °F 18.0 °F 52% 30.19 in - North 10.4 mph - N/A   Unknown
3:56 PM 35.1 °F 26.4 °F 17.1 °F 48% 30.19 in - North 12.7 mph - N/A   Unknown
4:56 PM 35.1 °F 25.5 °F 18.0 °F 50% 30.20 in - NNW 15.0 mph - N/A   Unknown
5:56 PM 30.9 °F 22.2 °F 18.0 °F 59% 30.22 in - North 10.4 mph - N/A   Unknown
6:56 PM 24.1 °F 15.2 °F 16.0 °F 71% 30.25 in - NNW 8.1 mph - N/A   Unknown
7:56 PM 23.0 °F 14.7 °F 16.0 °F 74% 30.26 in - NNW 6.9 mph - N/A   Unknown
8:56 PM 23.0 °F 12.4 °F 16.0 °F 74% 30.27 in - North 10.4 mph - N/A   Unknown
9:56 PM 21.0 °F 9.9 °F 15.1 °F 78% 30.28 in - NNW 10.4 mph - N/A   Unknown
10:56 PM 19.0 °F 10.0 °F 14.0 °F 81% 30.29 in - NNW 6.9 mph - N/A   Unknown
11:56 PM 17.1 °F 8.7 °F 12.9 °F 84% 30.29 in - NW 5.8 mph - N/A   Unknown